Skip Page Navigation
NASA JPL Caltech
NASA Logo - Jet Propulsion Laboratory + View the NASA Portal
+ Center for Near-Earth Object Studies
JPL Home Earth Solar System Stars & Galaxies Technology
JPL Solar System Dynamics
BODIES ORBITS EPHEMERIDES TOOLS PHYSICAL DATA DISCOVERY FAQ SITE MAP
JPL Small-Body Database Browser
Search: [ help ]  
214307 (2005 JF22)
Classification: Main-belt Asteroid          SPK-ID: 2214307
Ephemeris | Orbit Diagram | Orbital Elements | Mission Design | Physical Parameters | Discovery Circumstances | Close-Approach Data ]

[ show orbit diagram ]
Orbital Elements at Epoch 2459000.5 (2020-May-31.0) TDB
Reference: JPL 18 (heliocentric ecliptic J2000)
 Element Value Uncertainty (1-sigma)   Units 
e .2062975127069216 3.7635e-08  
a 2.385240085438005 1.3263e-08 au
q 1.893170988603299 9.3662e-08 au
i 9.261819260263014 5.6509e-06 deg
node 49.72963266986619 2.532e-05 deg
peri 273.4698723121837 2.9671e-05 deg
M 298.2669989876663 1.4447e-05 deg
tp 2459231.233930808618
(2021-Jan-16.73393081)
5.3991e-05 TDB
period 1345.539885133836
3.68
1.1223e-05
3.073e-08
d
yr
n .2675505973308194 2.2315e-09 deg/d
Q 2.87730918227271 1.5999e-08 au
  Orbit Determination Parameters
   # obs. used (total)      490  
   data-arc span      6465 days (17.70 yr)  
   first obs. used      2002-09-26  
   last obs. used      2020-06-08  
   planetary ephem.      DE431  
   SB-pert. ephem.      SB431-N16  
   condition code      0  
   norm. resid. RMS      .50243  
   source      ORB  
   producer      Otto Matic  
   solution date      2020-Jun-24 04:13:20  

Additional Information
 Earth MOID = .908757 au 
 Jupiter MOID = 2.51123 au 
 T_jup = 3.489 
[ show covariance matrix ]

Ephemeris | Orbit Diagram | Orbital Elements | Mission Design | Physical Parameters | Discovery Circumstances | Close-Approach Data ]

Physical Parameter Table
Parameter Symbol Value Units Sigma Reference Notes
absolute magnitude H 16.3   n/a MPO433401  

214307 (2005 JF22)          Discovered 2005-May-04 by Durig, D. T. at Cordell-Lorenz
Reference: 20090509/Numbers.arcLast Updated: 2009-05-11

[ show close-approach data ]
Alternate Designations
 2005 JF22 = 2006 SV245 
Ephemeris | Orbit Diagram | Orbital Elements | Mission Design | Physical Parameters | Discovery Circumstances | Close-Approach Data ]
ABOUT SSD CREDITS/AWARDS PRIVACY/COPYRIGHT GLOSSARY LINKS
FirstGov 2020-Jul-11 15:57 UT
(server date/time)  
NASA Home Page
Site Manager:   Ryan S. Park
Webmaster  Alan B. Chamberlin